Time,TemperatureF,DewpointF,PressureIn,WindDirection,WindDirectionDegrees,WindSpeedMPH,WindSpeedGustMPH,Humidity,HourlyPrecipIn,Conditions,Clouds,dailyrainin,SoftwareType,DateUTC
2013-03-18 00:00:00,34.4,32.9,29.70,ESE,105,4.6,4.6,94,0.00,CLR,,0.10,WeatherDisplay:10.37,2013-03-18 05:00:00,
2013-03-18 00:05:00,34.4,32.9,29.70,ESE,105,2.3,2.3,94,0.00,RA,,0.00,WeatherDisplay:10.37,2013-03-18 05:05:00,
2013-03-18 00:10:00,34.4,32.9,29.71,ESE,105,0.0,0.0,94,0.00,RA,,0.00,WeatherDisplay:10.37,2013-03-18 05:10:00,
2013-03-18 00:15:00,34.4,32.9,29.71,ESE,105,1.0,1.0,94,0.00,CLR,,0.00,WeatherDisplay:10.37,2013-03-18 05:15:00,
2013-03-18 00:20:00,34.4,32.9,29.71,ESE,105,2.3,0.0,94,0.00,CLR,,0.00,WeatherDisplay:10.37,2013-03-18 05:20:00,
2013-03-18 00:25:00,34.4,32.9,29.70,ESE,105,0.0,0.0,94,0.00,CLR,,0.00,WeatherDisplay:10.37,2013-03-18 05:25:00,
2013-03-18 00:30:00,34.4,32.9,29.70,ESE,105,3.5,3.5,94,0.00,CLR,,0.00,WeatherDisplay:10.37,2013-03-18 05:30:00,
2013-03-18 00:35:00,34.4,32.9,29.70,ESE,105,2.3,2.3,94,0.00,CLR,,0.00,WeatherDisplay:10.37,2013-03-18 05:35:00,
2013-03-18 00:40:00,34.4,32.9,29.70,ESE,105,0.0,0.0,94,0.00,CLR,,0.00,WeatherDisplay:10.37,2013-03-18 05:40:00,
2013-03-18 00:45:00,34.4,32.9,29.69,ESE,105,0.0,0.1,94,0.00,CLR,,0.00,WeatherDisplay:10.37,2013-03-18 05:45:00,
2013-03-18 00:50:00,34.4,32.9,29.70,ESE,105,2.3,2.3,94,0.00,CLR,,0.00,WeatherDisplay:10.37,2013-03-18 05:50:00,
2013-03-18 00:55:00,34.4,32.9,29.70,ESE,105,0.0,0.0,94,0.00,CLR,,0.00,WeatherDisplay:10.37,2013-03-18 05:55:00,
2013-03-18 01:00:00,34.4,32.9,29.69,ESE,105,3.5,3.5,94,0.00,CLR,,0.00,WeatherDisplay:10.37,2013-03-18 06:00:00,
2013-03-18 01:05:00,34.4,32.9,29.69,ESE,105,0.0,0.0,94,0.00,CLR,,0.00,WeatherDisplay:10.37,2013-03-18 06:05:00,
2013-03-18 01:10:00,34.4,32.9,29.69,ESE,105,2.3,2.3,94,0.00,CLR,,0.00,WeatherDisplay:10.37,2013-03-18 06:10:00,
2013-03-18 01:15:00,34.4,32.9,29.69,ESE,105,0.0,0.1,94,0.00,CLR,,0.00,WeatherDisplay:10.37,2013-03-18 06:15:00,
2013-03-18 01:20:00,34.4,32.9,29.70,ESE,105,0.0,0.0,94,0.00,CLR,,0.00,WeatherDisplay:10.37,2013-03-18 06:20:00,
2013-03-18 01:25:00,34.4,32.9,29.70,ESE,105,0.0,0.0,94,0.00,CLR,,0.00,WeatherDisplay:10.37,2013-03-18 06:25:00,
2013-03-18 01:30:00,34.4,32.9,29.70,ESE,105,0.0,0.0,94,0.00,CLR,,0.00,WeatherDisplay:10.37,2013-03-18 06:30:00,
2013-03-18 01:35:00,34.4,32.9,29.70,ESE,105,0.0,0.0,94,0.00,CLR,,0.00,WeatherDisplay:10.37,2013-03-18 06:35:00,
2013-03-18 01:40:00,34.4,32.9,29.70,ESE,105,0.0,0.0,94,0.00,CLR,,0.00,WeatherDisplay:10.37,2013-03-18 06:40:00,
2013-03-18 01:45:00,34.4,32.9,29.70,ESE,105,1.2,0.0,94,0.00,CLR,,0.00,WeatherDisplay:10.37,2013-03-18 06:45:00,
2013-03-18 01:50:00,34.4,32.9,29.70,ESE,105,1.2,1.2,94,0.00,CLR,,0.00,WeatherDisplay:10.37,2013-03-18 06:50:00,
2013-03-18 01:55:00,34.4,32.9,29.68,ESE,105,2.3,0.0,94,0.00,CLR,,0.00,WeatherDisplay:10.37,2013-03-18 06:55:00,
2013-03-18 02:00:00,34.4,32.9,29.68,ESE,105,3.5,3.5,94,0.00,CLR,,0.00,WeatherDisplay:10.37,2013-03-18 07:00:00,
2013-03-18 02:05:00,34.4,32.9,29.68,ESE,105,2.0,2.0,94,0.00,CLR,,0.00,WeatherDisplay:10.37,2013-03-18 07:05:00,
2013-03-18 02:10:00,34.4,32.9,29.67,ESE,105,3.5,3.5,94,0.00,CLR,,0.00,WeatherDisplay:10.37,2013-03-18 07:10:00,
2013-03-18 02:15:00,34.4,32.9,29.67,ESE,105,3.5,3.5,94,0.00,CLR,,0.00,WeatherDisplay:10.37,2013-03-18 07:15:00,
2013-03-18 02:20:00,34.4,32.9,29.67,ESE,105,3.5,3.5,94,0.00,CLR,,0.00,WeatherDisplay:10.37,2013-03-18 07:20:00,
2013-03-18 02:25:00,34.4,32.9,29.68,ESE,105,0.0,4.0,94,0.00,CLR,,0.00,WeatherDisplay:10.37,2013-03-18 07:25:00,
2013-03-18 02:30:00,34.4,32.9,29.68,ESE,105,0.0,0.1,94,0.00,CLR,,0.00,WeatherDisplay:10.37,2013-03-18 07:30:00,
2013-03-18 02:35:00,34.4,32.9,29.69,ESE,105,0.0,1.0,94,0.00,CLR,,0.00,WeatherDisplay:10.37,2013-03-18 07:35:00,
2013-03-18 02:40:00,34.4,32.9,29.70,ESE,105,0.0,0.0,94,0.00,CLR,,0.00,WeatherDisplay:10.37,2013-03-18 07:40:00,
2013-03-18 02:45:00,34.4,32.9,29.70,ESE,105,0.0,0.0,94,0.00,CLR,,0.00,WeatherDisplay:10.37,2013-03-18 07:45:00,
2013-03-18 02:50:00,34.4,32.9,29.71,ESE,105,0.0,0.0,94,0.00,CLR,,0.00,WeatherDisplay:10.37,2013-03-18 07:50:00,
2013-03-18 02:55:00,34.4,32.9,29.72,ESE,105,0.0,0.0,94,0.00,CLR,,0.00,WeatherDisplay:10.37,2013-03-18 07:55:00,
2013-03-18 03:00:00,34.5,33.0,29.72,ESE,105,0.0,0.0,94,0.00,CLR,,0.00,WeatherDisplay:10.37,2013-03-18 08:00:00,
2013-03-18 03:05:00,34.6,33.1,29.72,ESE,105,0.0,1.0,94,0.00,CLR,,0.00,WeatherDisplay:10.37,2013-03-18 08:05:00,
2013-03-18 03:10:00,34.7,33.2,29.72,ESE,105,0.0,0.0,94,0.00,CLR,,0.00,WeatherDisplay:10.37,2013-03-18 08:10:00,
2013-03-18 03:15:00,34.7,33.2,29.72,ESE,105,0.0,1.0,94,0.00,CLR,,0.00,WeatherDisplay:10.37,2013-03-18 08:15:00,
2013-03-18 03:20:00,34.7,33.2,29.71,ESE,105,0.0,0.0,94,0.00,CLR,,0.00,WeatherDisplay:10.37,2013-03-18 08:20:00,
2013-03-18 03:25:00,34.7,33.2,29.71,ESE,105,0.0,0.0,94,0.00,CLR,,0.00,WeatherDisplay:10.37,2013-03-18 08:25:00,
2013-03-18 03:30:00,34.7,33.2,29.71,ESE,105,1.2,0.0,94,0.00,CLR,,0.00,WeatherDisplay:10.37,2013-03-18 08:30:00,
2013-03-18 03:35:00,34.7,33.2,29.71,ESE,105,0.0,0.0,94,0.00,CLR,,0.00,WeatherDisplay:10.37,2013-03-18 08:35:00,
2013-03-18 03:40:00,34.7,33.2,29.71,ESE,105,0.0,0.0,94,0.00,CLR,,0.00,WeatherDisplay:10.37,2013-03-18 08:40:00,
2013-03-18 03:45:00,34.7,33.2,29.71,ESE,105,0.0,3.0,94,0.00,CLR,,0.00,WeatherDisplay:10.37,2013-03-18 08:45:00,
2013-03-18 03:50:00,34.7,33.2,29.70,ESE,105,2.3,2.3,94,0.00,CLR,,0.00,WeatherDisplay:10.37,2013-03-18 08:50:00,
2013-03-18 03:55:00,34.7,33.2,29.70,ESE,105,2.3,2.3,94,0.00,CLR,,0.00,WeatherDisplay:10.37,2013-03-18 08:55:00,
2013-03-18 04:00:00,34.7,33.2,29.70,ESE,105,2.0,2.0,94,0.00,CLR,,0.00,WeatherDisplay:10.37,2013-03-18 09:00:00,
2013-03-18 04:05:00,34.7,33.2,29.70,ESE,105,0.0,2.0,94,0.00,CLR,,0.00,WeatherDisplay:10.37,2013-03-18 09:05:00,
2013-03-18 04:10:00,34.7,33.2,29.70,ESE,105,3.5,3.5,94,0.00,CLR,,0.00,WeatherDisplay:10.37,2013-03-18 09:10:00,
2013-03-18 04:15:00,34.6,33.1,29.69,ESE,105,0.0,4.0,94,0.00,CLR,,0.00,WeatherDisplay:10.37,2013-03-18 09:15:00,
2013-03-18 04:20:00,34.6,33.3,29.69,ESE,105,0.0,0.2,95,0.00,CLR,,0.00,WeatherDisplay:10.37,2013-03-18 09:20:00,
2013-03-18 04:25:00,34.6,33.3,29.68,ESE,105,0.0,1.3,95,0.00,CLR,,0.00,WeatherDisplay:10.37,2013-03-18 09:25:00,
2013-03-18 04:30:00,34.6,33.3,29.68,ESE,105,1.2,1.2,95,0.00,CLR,,0.00,WeatherDisplay:10.37,2013-03-18 09:30:00,
2013-03-18 04:35:00,34.6,33.3,29.69,ESE,105,2.3,2.3,95,0.00,CLR,,0.00,WeatherDisplay:10.37,2013-03-18 09:35:00,
2013-03-18 04:40:00,34.7,33.4,29.68,ESE,105,2.3,2.3,95,0.00,CLR,,0.00,WeatherDisplay:10.37,2013-03-18 09:40:00,
2013-03-18 04:45:00,34.7,33.4,29.68,ESE,105,1.2,0.0,95,0.00,CLR,,0.00,WeatherDisplay:10.37,2013-03-18 09:45:00,
2013-03-18 04:50:00,34.7,33.4,29.69,ESE,105,0.0,0.0,95,0.00,CLR,,0.00,WeatherDisplay:10.37,2013-03-18 09:50:00,
2013-03-18 04:55:00,34.7,33.4,29.68,ESE,105,3.5,3.5,95,0.00,CLR,,0.00,WeatherDisplay:10.37,2013-03-18 09:55:00,
2013-03-18 05:00:00,34.7,33.4,29.68,ESE,105,0.0,3.0,95,0.00,CLR,,0.00,WeatherDisplay:10.37,2013-03-18 10:00:00,
2013-03-18 05:05:00,34.7,33.4,29.68,ESE,105,3.5,3.5,95,0.00,CLR,,0.00,WeatherDisplay:10.37,2013-03-18 10:05:00,
2013-03-18 05:10:00,34.6,33.3,29.68,ESE,105,1.0,6.0,95,0.00,CLR,,0.00,WeatherDisplay:10.37,2013-03-18 10:10:00,
2013-03-18 05:15:00,34.6,33.3,29.68,ESE,105,2.3,2.3,95,0.00,CLR,,0.00,WeatherDisplay:10.37,2013-03-18 10:15:00,
2013-03-18 05:20:00,34.6,33.3,29.68,ESE,105,2.3,2.3,95,0.00,CLR,,0.00,WeatherDisplay:10.37,2013-03-18 10:20:00,
2013-03-18 05:25:00,34.5,33.2,29.70,ESE,105,1.2,0.0,95,0.00,CLR,,0.00,WeatherDisplay:10.37,2013-03-18 10:25:00,
2013-03-18 05:30:00,34.6,33.3,29.70,ESE,105,2.0,7.0,95,0.00,CLR,,0.00,WeatherDisplay:10.37,2013-03-18 10:30:00,
2013-03-18 05:35:00,34.6,33.3,29.71,ESE,114,5.8,5.8,95,0.00,CLR,,0.00,WeatherDisplay:10.37,2013-03-18 10:35:00,
2013-03-18 05:40:00,34.5,33.2,29.71,West,273,3.0,10.0,95,0.00,CLR,,0.00,WeatherDisplay:10.37,2013-03-18 10:40:00,
2013-03-18 05:45:00,34.4,33.1,29.71,WNW,295,4.6,4.6,95,0.00,CLR,,0.00,WeatherDisplay:10.37,2013-03-18 10:45:00,
2013-03-18 05:50:00,34.5,33.2,29.72,WNW,293,5.8,5.8,95,0.00,CLR,,0.00,WeatherDisplay:10.37,2013-03-18 10:50:00,
2013-03-18 05:55:00,34.6,33.3,29.72,WNW,291,3.5,3.5,95,0.00,CLR,,0.00,WeatherDisplay:10.37,2013-03-18 10:55:00,
2013-03-18 06:00:00,34.6,33.3,29.72,WNW,291,6.9,6.9,95,0.00,CLR,,0.00,WeatherDisplay:10.37,2013-03-18 11:00:00,
2013-03-18 06:05:00,34.5,33.2,29.72,WNW,291,2.3,2.3,95,0.00,CLR,,0.00,WeatherDisplay:10.37,2013-03-18 11:05:00,
2013-03-18 06:10:00,34.5,33.2,29.72,WNW,291,1.0,7.0,95,0.00,CLR,,0.00,WeatherDisplay:10.37,2013-03-18 11:10:00,
2013-03-18 06:15:00,34.5,33.2,29.73,WNW,302,6.9,6.9,95,0.00,CLR,,0.00,WeatherDisplay:10.37,2013-03-18 11:15:00,
2013-03-18 06:20:00,34.4,33.1,29.73,WNW,299,3.5,3.5,95,0.00,CLR,,0.00,WeatherDisplay:10.37,2013-03-18 11:20:00,
2013-03-18 06:25:00,34.4,33.1,29.73,WNW,294,10.4,10.4,95,0.00,CLR,,0.00,WeatherDisplay:10.37,2013-03-18 11:25:00,
2013-03-18 06:30:00,34.4,33.1,29.73,WNW,294,3.5,3.5,95,0.00,CLR,,0.00,WeatherDisplay:10.37,2013-03-18 11:30:00,
2013-03-18 06:35:00,34.4,33.1,29.74,WNW,298,3.5,3.5,95,0.00,CLR,,0.00,WeatherDisplay:10.37,2013-03-18 11:35:00,
2013-03-18 06:40:00,34.4,33.1,29.73,WNW,298,3.5,3.5,95,0.00,CLR,,0.00,WeatherDisplay:10.37,2013-03-18 11:40:00,
2013-03-18 06:45:00,34.4,33.1,29.73,WNW,298,4.6,4.6,95,0.00,CLR,,0.00,WeatherDisplay:10.37,2013-03-18 11:45:00,
2013-03-18 06:50:00,34.4,33.1,29.73,WNW,298,4.6,4.6,95,0.00,CLR,,0.00,WeatherDisplay:10.37,2013-03-18 11:50:00,
2013-03-18 06:55:00,34.4,33.1,29.74,WNW,298,2.3,2.3,95,0.00,CLR,,0.00,WeatherDisplay:10.37,2013-03-18 11:55:00,
2013-03-18 07:00:00,34.4,33.1,29.75,WNW,298,1.2,1.2,95,0.00,CLR,,0.00,WeatherDisplay:10.37,2013-03-18 12:00:00,
2013-03-18 07:06:00,34.4,33.1,29.75,WNW,298,2.3,2.3,95,0.00,CLR,,0.00,WeatherDisplay:10.37,2013-03-18 12:06:00,
2013-03-18 07:11:00,34.4,33.1,29.76,WNW,298,3.5,3.5,95,0.00,CLR,,0.00,WeatherDisplay:10.37,2013-03-18 12:11:00,
2013-03-18 07:16:00,34.4,33.1,29.76,WNW,298,0.0,0.0,95,0.00,CLR,,0.00,WeatherDisplay:10.37,2013-03-18 12:16:00,
2013-03-18 07:21:00,34.5,33.2,29.75,WNW,297,0.0,0.0,95,0.00,CLR,,0.00,WeatherDisplay:10.37,2013-03-18 12:21:00,
2013-03-18 07:26:00,34.5,33.2,29.76,WNW,297,1.2,0.0,95,0.00,CLR,,0.00,WeatherDisplay:10.37,2013-03-18 12:26:00,
2013-03-18 07:31:00,34.5,33.2,29.76,WNW,297,1.2,1.2,95,0.00,CLR,,0.00,WeatherDisplay:10.37,2013-03-18 12:31:00,
2013-03-18 07:36:00,34.5,33.2,29.76,WNW,296,4.0,4.0,95,0.00,CLR,,0.00,WeatherDisplay:10.37,2013-03-18 12:36:00,
2013-03-18 07:41:00,34.5,33.2,29.76,WNW,296,5.8,5.8,95,0.00,CLR,,0.00,WeatherDisplay:10.37,2013-03-18 12:41:00,
2013-03-18 07:46:00,34.5,33.2,29.75,WNW,296,3.5,3.5,95,0.00,CLR,,0.00,WeatherDisplay:10.37,2013-03-18 12:46:00,
2013-03-18 07:51:00,34.5,33.2,29.75,WNW,296,2.3,2.3,95,0.00,CLR,,0.00,WeatherDisplay:10.37,2013-03-18 12:51:00,
2013-03-18 07:56:00,34.5,33.2,29.75,WNW,296,2.0,2.0,95,0.00,CLR,,0.00,WeatherDisplay:10.37,2013-03-18 12:56:00,
2013-03-18 08:01:00,34.6,33.3,29.76,WNW,296,4.6,4.6,95,0.00,CLR,,0.00,WeatherDisplay:10.37,2013-03-18 13:01:00,
2013-03-18 08:06:00,34.7,33.7,29.76,WNW,296,4.6,4.6,96,0.00,CLR,,0.00,WeatherDisplay:10.37,2013-03-18 13:06:00,
2013-03-18 08:11:00,34.8,33.8,29.76,WNW,296,3.5,3.5,96,0.00,CLR,,0.00,WeatherDisplay:10.37,2013-03-18 13:11:00,
2013-03-18 08:16:00,34.9,33.9,29.75,WNW,296,4.6,4.6,96,0.00,CLR,,0.00,WeatherDisplay:10.37,2013-03-18 13:16:00,
2013-03-18 08:21:00,34.9,33.9,29.76,WNW,296,5.0,5.0,96,0.00,CLR,,0.00,WeatherDisplay:10.37,2013-03-18 13:21:00,
2013-03-18 08:26:00,35.0,33.7,29.75,WNW,297,1.2,1.2,95,0.00,CLR,,0.00,WeatherDisplay:10.37,2013-03-18 13:26:00,
2013-03-18 08:32:00,35.1,33.8,29.77,WNW,297,4.6,4.6,95,0.00,CLR,,0.00,WeatherDisplay:10.37,2013-03-18 13:32:00,
2013-03-18 08:37:00,35.2,33.9,29.77,WNW,297,3.5,3.5,95,0.00,CLR,,0.00,WeatherDisplay:10.37,2013-03-18 13:37:00,
2013-03-18 08:42:00,35.3,34.0,29.78,WNW,296,3.5,3.5,95,0.00,CLR,,0.00,WeatherDisplay:10.37,2013-03-18 13:42:00,
2013-03-18 08:47:00,35.4,34.1,29.78,WNW,297,3.5,3.5,95,0.00,CLR,,0.00,WeatherDisplay:10.37,2013-03-18 13:47:00,
2013-03-18 08:52:00,35.4,34.1,29.78,WNW,297,3.5,3.5,95,0.00,CLR,,0.00,WeatherDisplay:10.37,2013-03-18 13:52:00,
2013-03-18 08:57:00,35.5,34.2,29.78,WNW,299,6.9,6.9,95,0.00,CLR,,0.00,WeatherDisplay:10.37,2013-03-18 13:57:00,
2013-03-18 09:02:00,35.6,34.3,29.77,WNW,299,2.3,2.3,95,0.00,CLR,,0.00,WeatherDisplay:10.37,2013-03-18 14:02:00,
2013-03-18 09:08:00,35.9,34.6,29.78,WNW,299,2.3,2.3,95,0.00,CLR,,0.00,WeatherDisplay:10.37,2013-03-18 14:08:00,
2013-03-18 09:13:00,36.1,34.8,29.78,WNW,299,10.4,10.4,95,0.00,CLR,,0.00,WeatherDisplay:10.37,2013-03-18 14:13:00,
2013-03-18 09:18:00,36.5,35.2,29.78,WNW,299,3.5,3.5,95,0.00,CLR,,0.00,WeatherDisplay:10.37,2013-03-18 14:18:00,
2013-03-18 09:23:00,37.0,35.7,29.79,WNW,299,3.0,3.0,95,0.00,CLR,,0.00,WeatherDisplay:10.37,2013-03-18 14:23:00,
2013-03-18 09:28:00,37.3,36.0,29.79,WNW,299,5.8,5.8,95,0.00,CLR,,0.00,WeatherDisplay:10.37,2013-03-18 14:28:00,
2013-03-18 09:33:00,37.5,36.2,29.78,WNW,296,9.0,9.0,95,0.00,CLR,,0.00,WeatherDisplay:10.37,2013-03-18 14:33:00,
2013-03-18 09:38:00,37.7,36.4,29.78,WNW,294,4.0,4.0,95,0.00,CLR,,0.00,WeatherDisplay:10.37,2013-03-18 14:38:00,
2013-03-18 09:43:00,37.9,36.6,29.78,West,274,11.5,11.5,95,0.00,CLR,,0.00,WeatherDisplay:10.37,2013-03-18 14:43:00,
2013-03-18 09:48:00,38.4,37.1,29.78,NW,309,4.6,4.6,95,0.00,CLR,,0.00,WeatherDisplay:10.37,2013-03-18 14:48:00,
2013-03-18 09:53:00,38.6,37.0,29.78,WNW,290,5.8,5.8,94,0.00,CLR,,0.00,WeatherDisplay:10.37,2013-03-18 14:53:00,
2013-03-18 09:58:00,39.1,37.2,29.79,WNW,303,9.2,9.2,93,0.00,CLR,,0.00,WeatherDisplay:10.37,2013-03-18 14:58:00,
2013-03-18 10:03:00,39.4,37.3,29.79,WNW,303,8.1,8.1,92,0.00,CLR,,0.00,WeatherDisplay:10.37,2013-03-18 15:03:00,
2013-03-18 10:08:00,39.7,37.0,29.79,NNW,337,11.5,11.5,90,0.00,CLR,,0.00,WeatherDisplay:10.37,2013-03-18 15:08:00,
2013-03-18 10:13:00,40.1,36.8,29.79,West,277,15.0,15.0,88,0.00,CLR,,0.00,WeatherDisplay:10.37,2013-03-18 15:13:00,
2013-03-18 10:18:00,40.6,36.7,29.80,WNW,302,11.5,11.5,86,0.00,CLR,,0.00,WeatherDisplay:10.37,2013-03-18 15:18:00,
2013-03-18 10:23:00,41.3,36.8,29.80,North,9,12.7,12.7,84,0.00,CLR,,0.00,WeatherDisplay:10.37,2013-03-18 15:23:00,
2013-03-18 10:28:00,41.8,36.1,29.80,NNW,348,6.0,6.6,80,0.00,CLR,,0.00,WeatherDisplay:10.37,2013-03-18 15:28:00,
2013-03-18 10:33:00,42.7,36.6,29.80,NW,326,6.9,6.9,79,0.00,CLR,,0.00,WeatherDisplay:10.37,2013-03-18 15:33:00,
2013-03-18 10:38:00,43.4,36.3,29.80,WNW,299,13.8,13.8,76,0.00,CLR,,0.00,WeatherDisplay:10.37,2013-03-18 15:38:00,
2013-03-18 10:43:00,43.7,36.0,29.80,WNW,286,5.8,5.8,74,0.00,CLR,,0.00,WeatherDisplay:10.37,2013-03-18 15:43:00,
2013-03-18 10:48:00,44.3,36.5,29.79,WNW,296,6.0,6.0,74,0.00,CLR,,0.00,WeatherDisplay:10.37,2013-03-18 15:48:00,
2013-03-18 10:53:00,45.0,36.5,29.80,WNW,287,3.5,3.5,72,0.00,CLR,,0.00,WeatherDisplay:10.37,2013-03-18 15:53:00,
2013-03-18 10:58:00,45.3,35.7,29.80,NNW,333,11.5,11.5,69,0.00,CLR,,0.00,WeatherDisplay:10.37,2013-03-18 15:58:00,
2013-03-18 11:03:00,45.6,35.3,29.80,WNW,295,3.5,3.5,67,0.00,CLR,,0.00,WeatherDisplay:10.37,2013-03-18 16:03:00,
2013-03-18 11:08:00,45.9,35.6,29.80,WNW,299,5.8,5.8,67,0.00,CLR,,0.00,WeatherDisplay:10.37,2013-03-18 16:08:00,
2013-03-18 11:13:00,46.4,34.5,29.81,NNW,342,15.0,15.0,63,0.00,CLR,,0.00,WeatherDisplay:10.37,2013-03-18 16:13:00,
2013-03-18 11:18:00,45.8,33.9,29.80,North,355,5.8,5.8,63,0.00,CLR,,0.00,WeatherDisplay:10.37,2013-03-18 16:18:00,
2013-03-18 11:23:00,45.8,33.5,29.81,West,264,11.5,11.5,62,0.00,CLR,,0.00,WeatherDisplay:10.37,2013-03-18 16:23:00,
2013-03-18 11:28:00,46.5,34.6,29.81,WNW,302,10.4,10.4,63,0.00,CLR,,0.00,WeatherDisplay:10.37,2013-03-18 16:28:00,
2013-03-18 11:33:00,47.1,34.3,29.81,WNW,295,9.2,9.2,61,0.00,CLR,,0.00,WeatherDisplay:10.37,2013-03-18 16:33:00,
2013-03-18 11:38:00,47.6,34.8,29.81,NW,306,3.5,3.5,61,0.00,CLR,,0.00,WeatherDisplay:10.37,2013-03-18 16:38:00,
2013-03-18 11:43:00,47.7,33.2,29.81,North,349,10.4,10.4,57,0.00,CLR,,0.00,WeatherDisplay:10.37,2013-03-18 16:43:00,
2013-03-18 11:48:00,47.1,33.1,29.81,WNW,288,9.2,9.2,58,0.00,CLR,,0.00,WeatherDisplay:10.37,2013-03-18 16:48:00,
2013-03-18 11:53:00,47.6,33.1,29.81,WNW,302,5.8,5.8,57,0.00,CLR,,0.00,WeatherDisplay:10.37,2013-03-18 16:53:00,
2013-03-18 11:58:00,47.9,32.5,29.81,NNW,342,10.4,10.4,55,0.00,CLR,,0.00,WeatherDisplay:10.37,2013-03-18 16:58:00,
2013-03-18 12:03:00,47.4,32.0,29.82,West,279,10.4,10.4,55,0.00,CLR,,0.00,WeatherDisplay:10.37,2013-03-18 17:03:00,
2013-03-18 12:08:00,47.9,33.4,29.82,West,279,11.5,11.5,57,0.00,CLR,,0.00,WeatherDisplay:10.37,2013-03-18 17:08:00,
2013-03-18 12:13:00,48.4,33.0,29.82,NW,319,13.8,13.8,55,0.00,CLR,,0.00,WeatherDisplay:10.37,2013-03-18 17:13:00,
2013-03-18 12:19:00,48.3,33.3,29.82,NW,309,5.0,5.0,56,0.00,CLR,,0.00,WeatherDisplay:10.37,2013-03-18 17:19:00,
2013-03-18 12:24:00,49.0,34.0,29.82,North,351,11.0,11.0,56,0.00,CLR,,0.00,WeatherDisplay:10.37,2013-03-18 17:24:00,
2013-03-18 12:29:00,49.4,33.4,29.82,NNW,348,6.9,6.9,54,0.00,CLR,,0.00,WeatherDisplay:10.37,2013-03-18 17:29:00,
2013-03-18 12:34:00,49.0,32.6,29.82,NNW,331,10.4,10.4,53,0.00,CLR,,0.00,WeatherDisplay:10.37,2013-03-18 17:34:00,
2013-03-18 12:39:00,48.5,32.1,29.82,North,355,16.1,16.1,53,0.00,CLR,,0.00,WeatherDisplay:10.37,2013-03-18 17:39:00,
2013-03-18 12:44:00,48.1,32.7,29.82,WNW,288,9.2,9.2,55,0.00,CLR,,0.00,WeatherDisplay:10.37,2013-03-18 17:44:00,
2013-03-18 12:49:00,48.7,33.2,29.82,NW,306,12.0,12.0,55,0.00,CLR,,0.00,WeatherDisplay:10.37,2013-03-18 17:49:00,
2013-03-18 12:54:00,49.0,33.1,29.82,North,355,11.5,11.5,54,0.00,CLR,,0.00,WeatherDisplay:10.37,2013-03-18 17:54:00,
2013-03-18 12:59:00,48.9,33.0,29.82,NW,315,10.4,10.4,54,0.00,CLR,,0.00,WeatherDisplay:10.37,2013-03-18 17:59:00,
2013-03-18 13:04:00,48.9,33.0,29.82,NW,313,11.5,11.5,54,0.00,CLR,,0.00,WeatherDisplay:10.37,2013-03-18 18:04:00,
2013-03-18 13:09:00,49.6,33.2,29.82,West,272,13.8,13.8,53,0.00,CLR,,0.00,WeatherDisplay:10.37,2013-03-18 18:09:00,
2013-03-18 13:14:00,50.3,32.4,29.82,North,355,11.5,11.5,50,0.00,CLR,,0.00,WeatherDisplay:10.37,2013-03-18 18:14:00,
2013-03-18 13:19:00,50.2,31.2,29.83,West,276,19.6,19.6,48,0.00,CLR,,0.00,WeatherDisplay:10.37,2013-03-18 18:19:00,
2013-03-18 13:24:00,49.8,31.4,29.82,WNW,298,16.1,16.1,49,0.00,CLR,,0.00,WeatherDisplay:10.37,2013-03-18 18:24:00,
2013-03-18 13:29:00,49.8,30.9,29.83,WNW,303,18.4,18.4,48,0.00,CLR,,0.00,WeatherDisplay:10.37,2013-03-18 18:29:00,
2013-03-18 13:34:00,49.5,30.6,29.83,West,268,15.0,15.0,48,0.00,CLR,,0.00,WeatherDisplay:10.37,2013-03-18 18:34:00,
2013-03-18 13:39:00,49.5,30.1,29.83,WNW,294,11.5,11.5,47,0.00,CLR,,0.00,WeatherDisplay:10.37,2013-03-18 18:39:00,
2013-03-18 13:44:00,50.0,30.5,29.83,West,279,15.0,15.0,47,0.00,CLR,,0.00,WeatherDisplay:10.37,2013-03-18 18:44:00,
2013-03-18 13:49:00,50.1,30.6,29.83,West,272,13.8,13.8,47,0.00,CLR,,0.00,WeatherDisplay:10.37,2013-03-18 18:49:00,
2013-03-18 13:54:00,50.1,30.6,29.83,West,281,16.1,16.1,47,0.00,CLR,,0.00,WeatherDisplay:10.37,2013-03-18 18:54:00,
2013-03-18 13:59:00,50.3,30.3,29.83,West,279,6.9,6.9,46,0.00,CLR,,0.00,WeatherDisplay:10.37,2013-03-18 18:59:00,
2013-03-18 14:04:00,50.1,30.1,29.83,NW,313,5.8,5.8,46,0.00,CLR,,0.00,WeatherDisplay:10.37,2013-03-18 19:04:00,
2013-03-18 14:09:00,50.6,31.1,29.83,NW,321,10.4,10.4,47,0.00,CLR,,0.00,WeatherDisplay:10.37,2013-03-18 19:09:00,
2013-03-18 14:14:00,50.8,30.7,29.83,North,360,12.7,12.7,46,0.00,CLR,,0.00,WeatherDisplay:10.37,2013-03-18 19:14:00,
2013-03-18 14:19:00,50.8,31.3,29.83,NW,311,4.6,4.6,47,0.00,CLR,,0.00,WeatherDisplay:10.37,2013-03-18 19:19:00,
2013-03-18 14:24:00,50.8,30.2,29.82,North,350,11.5,11.5,45,0.00,CLR,,0.00,WeatherDisplay:10.37,2013-03-18 19:24:00,
2013-03-18 14:29:00,50.7,30.7,29.82,WNW,284,10.4,10.4,46,0.00,CLR,,0.00,WeatherDisplay:10.37,2013-03-18 19:29:00,
2013-03-18 14:34:00,51.3,31.2,29.82,NW,305,3.5,3.5,46,0.00,CLR,,0.00,WeatherDisplay:10.37,2013-03-18 19:34:00,
2013-03-18 14:39:00,51.8,31.7,29.82,WNW,287,10.4,10.4,46,0.00,CLR,,0.00,WeatherDisplay:10.37,2013-03-18 19:39:00,
2013-03-18 14:44:00,51.8,31.7,29.82,WNW,295,4.6,4.6,46,0.00,CLR,,0.00,WeatherDisplay:10.37,2013-03-18 19:44:00,
2013-03-18 14:49:00,52.2,32.0,29.82,WNW,288,11.5,11.5,46,0.00,CLR,,0.00,WeatherDisplay:10.37,2013-03-18 19:49:00,
2013-03-18 14:54:00,52.1,31.4,29.82,WNW,300,12.7,12.7,45,0.00,CLR,,0.00,WeatherDisplay:10.37,2013-03-18 19:54:00,
2013-03-18 14:59:00,52.0,30.7,29.82,NW,323,7.0,7.0,44,0.00,CLR,,0.00,WeatherDisplay:10.37,2013-03-18 19:59:00,
2013-03-18 15:04:00,51.9,30.1,29.82,WNW,288,15.0,15.0,43,0.00,CLR,,0.00,WeatherDisplay:10.37,2013-03-18 20:04:00,
2013-03-18 15:09:00,52.1,30.3,29.82,WNW,291,10.4,10.4,43,0.00,CLR,,0.00,WeatherDisplay:10.37,2013-03-18 20:09:00,
2013-03-18 15:14:00,52.2,30.4,29.82,WNW,296,9.2,9.2,43,0.00,CLR,,0.00,WeatherDisplay:10.37,2013-03-18 20:14:00,
2013-03-18 15:19:00,52.1,30.3,29.82,WNW,298,10.4,10.4,43,0.00,CLR,,0.00,WeatherDisplay:10.37,2013-03-18 20:19:00,
2013-03-18 15:24:00,52.0,29.6,29.82,WNW,302,13.8,13.8,42,0.00,CLR,,0.00,WeatherDisplay:10.37,2013-03-18 20:24:00,
2013-03-18 15:29:00,51.9,29.5,29.82,NNW,345,11.5,11.5,42,0.00,CLR,,0.00,WeatherDisplay:10.37,2013-03-18 20:29:00,
2013-03-18 15:34:00,51.9,30.1,29.81,NNW,329,6.9,6.9,43,0.00,CLR,,0.00,WeatherDisplay:10.37,2013-03-18 20:34:00,
2013-03-18 15:39:00,52.1,29.7,29.81,WNW,296,10.4,10.4,42,0.00,CLR,,0.00,WeatherDisplay:10.37,2013-03-18 20:39:00,
2013-03-18 15:44:00,52.4,29.4,29.81,NW,306,11.5,11.5,41,0.00,CLR,,0.00,WeatherDisplay:10.37,2013-03-18 20:44:00,
2013-03-18 15:49:00,53.0,29.3,29.81,NW,306,10.4,10.4,40,0.00,CLR,,0.00,WeatherDisplay:10.37,2013-03-18 20:49:00,
2013-03-18 15:54:00,53.5,29.7,29.81,WNW,288,11.5,11.5,40,0.00,CLR,,0.00,WeatherDisplay:10.37,2013-03-18 20:54:00,
2013-03-18 15:59:00,53.6,28.6,29.81,WNW,300,12.7,12.7,38,0.00,CLR,,0.00,WeatherDisplay:10.37,2013-03-18 20:59:00,
2013-03-18 16:04:00,53.4,29.0,29.82,NW,309,13.8,13.8,39,0.00,CLR,,0.00,WeatherDisplay:10.37,2013-03-18 21:04:00,
2013-03-18 16:09:00,53.3,28.9,29.82,WNW,292,9.2,9.2,39,0.00,CLR,,0.00,WeatherDisplay:10.37,2013-03-18 21:09:00,
2013-03-18 16:14:00,53.4,29.0,29.82,NW,326,16.1,16.1,39,0.00,CLR,,0.00,WeatherDisplay:10.37,2013-03-18 21:14:00,
2013-03-18 16:19:00,53.1,28.8,29.82,WNW,288,10.4,10.4,39,0.00,CLR,,0.00,WeatherDisplay:10.37,2013-03-18 21:19:00,
2013-03-18 16:24:00,53.1,29.4,29.82,NW,307,5.8,5.8,40,0.00,CLR,,0.00,WeatherDisplay:10.37,2013-03-18 21:24:00,
2013-03-18 16:29:00,53.2,28.9,29.82,WNW,292,11.0,11.0,39,0.00,CLR,,0.00,WeatherDisplay:10.37,2013-03-18 21:29:00,
2013-03-18 16:34:00,53.3,28.9,29.82,WNW,300,5.8,5.8,39,0.00,CLR,,0.00,WeatherDisplay:10.37,2013-03-18 21:34:00,
2013-03-18 16:39:00,53.4,29.0,29.82,NW,320,9.2,9.2,39,0.00,CLR,,0.00,WeatherDisplay:10.37,2013-03-18 21:39:00,
2013-03-18 16:45:00,53.2,28.9,29.82,West,279,13.0,13.0,39,0.00,CLR,,0.00,WeatherDisplay:10.37,2013-03-18 21:45:00,
2013-03-18 16:50:00,52.8,27.2,29.82,WNW,288,15.0,15.0,37,0.00,CLR,,0.00,WeatherDisplay:10.37,2013-03-18 21:50:00,
2013-03-18 16:55:00,52.6,27.7,29.82,WNW,295,15.0,15.0,38,0.00,CLR,,0.00,WeatherDisplay:10.37,2013-03-18 21:55:00,
2013-03-18 17:00:00,52.9,28.6,29.82,NW,307,6.9,6.9,39,0.00,CLR,,0.00,WeatherDisplay:10.37,2013-03-18 22:00:00,
2013-03-18 17:05:00,53.3,28.3,29.82,WNW,303,16.1,16.1,38,0.00,CLR,,0.00,WeatherDisplay:10.37,2013-03-18 22:05:00,
2013-03-18 17:10:00,53.5,28.5,29.82,WNW,296,10.0,10.0,38,0.00,CLR,,0.00,WeatherDisplay:10.37,2013-03-18 22:10:00,
2013-03-18 17:15:00,53.1,26.8,29.83,NNW,327,16.1,16.1,36,0.00,CLR,,0.00,WeatherDisplay:10.37,2013-03-18 22:15:00,
2013-03-18 17:20:00,52.7,26.5,29.83,West,263,21.9,21.9,36,0.00,CLR,,0.00,WeatherDisplay:10.37,2013-03-18 22:20:00,
2013-03-18 17:25:00,52.7,27.1,29.83,West,273,10.0,10.0,37,0.00,CLR,,0.00,WeatherDisplay:10.37,2013-03-18 22:25:00,
2013-03-18 17:30:00,52.8,26.6,29.83,NNW,327,6.9,6.9,36,0.00,CLR,,0.00,WeatherDisplay:10.37,2013-03-18 22:30:00,
2013-03-18 17:35:00,53.0,26.7,29.83,WNW,292,13.8,13.8,36,0.00,CLR,,0.00,WeatherDisplay:10.37,2013-03-18 22:35:00,
2013-03-18 17:40:00,52.9,26.0,29.83,WNW,288,12.7,12.7,35,0.00,CLR,,0.00,WeatherDisplay:10.37,2013-03-18 22:40:00,
2013-03-18 17:45:00,52.8,25.9,29.83,WNW,290,12.7,12.7,35,0.00,CLR,,0.00,WeatherDisplay:10.37,2013-03-18 22:45:00,
2013-03-18 17:50:00,52.5,25.6,29.83,NW,322,11.5,11.5,35,0.00,CLR,,0.00,WeatherDisplay:10.37,2013-03-18 22:50:00,
2013-03-18 17:55:00,52.1,25.9,29.84,WNW,298,11.5,11.5,36,0.00,CLR,,0.00,WeatherDisplay:10.37,2013-03-18 22:55:00,
2013-03-18 18:00:00,52.2,26.7,29.84,NNW,331,4.6,4.6,37,0.00,CLR,,0.00,WeatherDisplay:10.37,2013-03-18 23:00:00,
2013-03-18 18:05:00,51.9,25.1,29.84,NW,314,13.8,13.8,35,0.00,CLR,,0.00,WeatherDisplay:10.37,2013-03-18 23:05:00,
2013-03-18 18:10:00,51.5,25.4,29.84,West,267,12.7,12.7,36,0.00,CLR,,0.00,WeatherDisplay:10.37,2013-03-18 23:10:00,
2013-03-18 18:15:00,51.2,25.1,29.85,WNW,291,12.7,12.7,36,0.00,CLR,,0.00,WeatherDisplay:10.37,2013-03-18 23:15:00,
2013-03-18 18:20:00,51.0,25.0,29.85,WNW,302,13.8,13.8,36,0.00,CLR,,0.00,WeatherDisplay:10.37,2013-03-18 23:20:00,
2013-03-18 18:25:00,50.6,24.6,29.85,West,281,15.0,15.0,36,0.00,CLR,,0.00,WeatherDisplay:10.37,2013-03-18 23:25:00,
2013-03-18 18:30:00,50.3,25.0,29.85,NW,307,12.0,12.0,37,0.00,CLR,,0.00,WeatherDisplay:10.37,2013-03-18 23:30:00,
2013-03-18 18:35:00,50.1,24.8,29.85,NW,310,16.0,16.0,37,0.00,CLR,,0.00,WeatherDisplay:10.37,2013-03-18 23:35:00,
2013-03-18 18:40:00,49.9,25.3,29.86,NNW,329,9.2,9.2,38,0.00,CLR,,0.00,WeatherDisplay:10.37,2013-03-18 23:40:00,
2013-03-18 18:45:00,49.7,25.7,29.86,WNW,299,15.0,15.0,39,0.00,CLR,,0.00,WeatherDisplay:10.37,2013-03-18 23:45:00,
2013-03-18 18:50:00,49.4,25.4,29.86,West,281,11.5,11.5,39,0.00,CLR,,0.00,WeatherDisplay:10.37,2013-03-18 23:50:00,
2013-03-18 18:55:00,49.2,25.3,29.86,NW,314,5.8,5.8,39,0.00,CLR,,0.00,WeatherDisplay:10.37,2013-03-18 23:55:00,
2013-03-18 19:00:00,48.9,25.6,29.86,NW,320,6.9,6.9,40,0.00,CLR,,0.00,WeatherDisplay:10.37,2013-03-19 00:00:00,
2013-03-18 19:05:00,48.6,25.3,29.86,WNW,299,9.2,9.2,40,0.00,CLR,,0.00,WeatherDisplay:10.37,2013-03-19 00:05:00,
2013-03-18 19:10:00,48.3,25.7,29.87,NW,308,10.4,10.4,41,0.00,CLR,,0.00,WeatherDisplay:10.37,2013-03-19 00:10:00,
2013-03-18 19:15:00,48.0,25.4,29.87,WNW,299,15.0,15.0,41,0.00,CLR,,0.00,WeatherDisplay:10.37,2013-03-19 00:15:00,
2013-03-18 19:20:00,47.8,25.8,29.87,West,280,9.2,9.2,42,0.00,CLR,,0.00,WeatherDisplay:10.37,2013-03-19 00:20:00,
2013-03-18 19:25:00,47.5,24.3,29.88,WNW,297,17.3,17.3,40,0.00,CLR,,0.00,WeatherDisplay:10.37,2013-03-19 00:25:00,
2013-03-18 19:30:00,47.3,23.6,29.88,WNW,298,12.7,12.7,39,0.00,CLR,,0.00,WeatherDisplay:10.37,2013-03-19 00:30:00,
2013-03-18 19:35:00,47.1,23.4,29.88,WNW,295,5.0,5.0,39,0.00,CLR,,0.00,WeatherDisplay:10.37,2013-03-19 00:35:00,
2013-03-18 19:40:00,46.9,23.8,29.88,North,355,9.2,9.2,40,0.00,CLR,,0.00,WeatherDisplay:10.37,2013-03-19 00:40:00,
2013-03-18 19:45:00,46.6,24.1,29.89,NW,319,6.9,6.9,41,0.00,CLR,,0.00,WeatherDisplay:10.37,2013-03-19 00:45:00,
2013-03-18 19:50:00,46.2,24.9,29.90,WNW,288,11.5,11.5,43,0.00,CLR,,0.00,WeatherDisplay:10.37,2013-03-19 00:50:00,
2013-03-18 19:55:00,45.7,24.5,29.90,WNW,296,4.6,4.6,43,0.00,CLR,,0.00,WeatherDisplay:10.37,2013-03-19 00:55:00,
2013-03-18 20:00:00,45.3,24.6,29.91,NNW,327,7.0,7.0,44,0.00,CLR,,0.00,WeatherDisplay:10.37,2013-03-19 01:00:00,
2013-03-18 20:05:00,45.0,24.4,29.91,NNW,348,10.0,10.0,44,0.00,CLR,,0.00,WeatherDisplay:10.37,2013-03-19 01:05:00,
2013-03-18 20:10:00,44.7,23.5,29.91,NW,318,6.9,6.9,43,0.00,CLR,,0.00,WeatherDisplay:10.37,2013-03-19 01:10:00,
2013-03-18 20:15:00,44.4,23.3,29.92,WNW,292,5.8,5.8,43,0.00,CLR,,0.00,WeatherDisplay:10.37,2013-03-19 01:15:00,
2013-03-18 20:20:00,44.2,23.1,29.92,NW,307,6.9,6.9,43,0.00,CLR,,0.00,WeatherDisplay:10.37,2013-03-19 01:20:00,
2013-03-18 20:25:00,44.0,22.9,29.92,NW,317,3.5,3.5,43,0.00,CLR,,0.00,WeatherDisplay:10.37,2013-03-19 01:25:00,
2013-03-18 20:30:00,43.8,22.7,29.92,NW,304,2.3,2.3,43,0.00,CLR,,0.00,WeatherDisplay:10.37,2013-03-19 01:30:00,
2013-03-18 20:35:00,43.6,22.5,29.93,WNW,303,3.5,3.5,43,0.00,CLR,,0.00,WeatherDisplay:10.37,2013-03-19 01:35:00,
2013-03-18 20:40:00,43.4,22.4,29.93,WNW,303,6.0,6.0,43,0.00,CLR,,0.00,WeatherDisplay:10.37,2013-03-19 01:40:00,
2013-03-18 20:45:00,43.2,22.7,29.93,NW,314,1.2,1.2,44,0.00,CLR,,0.00,WeatherDisplay:10.37,2013-03-19 01:45:00,
2013-03-18 20:50:00,42.9,22.5,29.93,NW,313,3.5,3.5,44,0.00,CLR,,0.00,WeatherDisplay:10.37,2013-03-19 01:50:00,
2013-03-18 20:55:00,42.7,22.3,29.94,NW,311,3.5,3.5,44,0.00,CLR,,0.00,WeatherDisplay:10.37,2013-03-19 01:55:00,
2013-03-18 21:00:00,42.5,22.1,29.94,NNW,346,8.0,8.0,44,0.00,CLR,,0.00,WeatherDisplay:10.37,2013-03-19 02:00:00,
2013-03-18 21:05:00,42.4,22.0,29.94,NNW,346,4.6,4.6,44,0.00,CLR,,0.00,WeatherDisplay:10.37,2013-03-19 02:05:00,
2013-03-18 21:10:00,42.2,21.8,29.94,NNW,340,3.5,3.5,44,0.00,CLR,,0.00,WeatherDisplay:10.37,2013-03-19 02:10:00,
2013-03-18 21:15:00,42.0,21.6,29.94,NNW,333,5.8,5.8,44,0.00,CLR,,0.00,WeatherDisplay:10.37,2013-03-19 02:15:00,
2013-03-18 21:20:00,41.9,21.5,29.95,NNW,333,2.3,2.3,44,0.00,CLR,,0.00,WeatherDisplay:10.37,2013-03-19 02:20:00,
2013-03-18 21:25:00,41.6,21.8,29.95,NNW,334,6.0,6.0,45,0.00,CLR,,0.00,WeatherDisplay:10.37,2013-03-19 02:25:00,
2013-03-18 21:30:00,41.5,21.7,29.95,NNW,336,4.0,4.0,45,0.00,CLR,,0.00,WeatherDisplay:10.37,2013-03-19 02:30:00,
2013-03-18 21:35:00,41.3,21.5,29.95,NNW,348,10.4,10.4,45,0.00,CLR,,0.00,WeatherDisplay:10.37,2013-03-19 02:35:00,
2013-03-18 21:40:00,41.1,21.3,29.96,NNW,346,6.9,6.9,45,0.00,CLR,,0.00,WeatherDisplay:10.37,2013-03-19 02:40:00,
2013-03-18 21:45:00,40.9,21.7,29.96,NNW,348,6.9,6.9,46,0.00,CLR,,0.00,WeatherDisplay:10.37,2013-03-19 02:45:00,
2013-03-18 21:50:00,40.7,21.5,29.96,NNW,348,6.9,6.9,46,0.00,CLR,,0.00,WeatherDisplay:10.37,2013-03-19 02:50:00,
2013-03-18 21:55:00,40.5,21.3,29.97,NNW,347,5.8,5.8,46,0.00,CLR,,0.00,WeatherDisplay:10.37,2013-03-19 02:55:00,
2013-03-18 22:00:00,40.2,21.0,29.96,NNW,347,3.5,3.5,46,0.00,CLR,,0.00,WeatherDisplay:10.37,2013-03-19 03:00:00,
2013-03-18 22:05:00,40.0,21.4,29.97,NNW,347,1.0,6.0,47,0.00,CLR,,0.00,WeatherDisplay:10.37,2013-03-19 03:05:00,
2013-03-18 22:10:00,39.8,20.7,29.97,NNW,347,4.6,4.6,46,0.00,CLR,,0.00,WeatherDisplay:10.37,2013-03-19 03:10:00,
2013-03-18 22:15:00,39.7,21.1,29.97,NNW,347,2.0,9.0,47,0.00,CLR,,0.00,WeatherDisplay:10.37,2013-03-19 03:15:00,
2013-03-18 22:20:00,39.4,20.8,29.97,NNW,348,3.5,3.5,47,0.00,CLR,,0.00,WeatherDisplay:10.37,2013-03-19 03:20:00,
2013-03-18 22:25:00,39.2,20.6,29.97,NNW,348,5.8,5.8,47,0.00,CLR,,0.00,WeatherDisplay:10.37,2013-03-19 03:25:00,
2013-03-18 22:30:00,39.0,20.9,29.97,NNW,348,3.5,3.5,48,0.00,CLR,,0.00,WeatherDisplay:10.37,2013-03-19 03:30:00,
2013-03-18 22:35:00,38.8,20.8,29.97,NNW,348,4.6,4.6,48,0.00,CLR,,0.00,WeatherDisplay:10.37,2013-03-19 03:35:00,
2013-03-18 22:40:00,38.6,20.6,29.97,NNW,348,4.6,4.6,48,0.00,CLR,,0.00,WeatherDisplay:10.37,2013-03-19 03:40:00,
2013-03-18 22:45:00,38.4,20.9,29.98,NNW,348,2.0,4.0,49,0.00,CLR,,0.00,WeatherDisplay:10.37,2013-03-19 03:45:00,
2013-03-18 22:50:00,38.2,20.7,29.98,NNW,348,1.2,1.2,49,0.00,CLR,,0.00,WeatherDisplay:10.37,2013-03-19 03:50:00,
2013-03-18 22:55:00,38.0,20.5,29.98,NNW,348,2.3,2.3,49,0.00,CLR,,0.00,WeatherDisplay:10.37,2013-03-19 03:55:00,
2013-03-18 23:00:00,37.9,20.4,29.97,North,349,6.9,6.9,49,0.00,CLR,,0.00,WeatherDisplay:10.37,2013-03-19 04:00:00,
2013-03-18 23:01:00,37.9,20.4,29.98,North,349,2.3,2.3,49,0.00,CLR,,0.00,WeatherDisplay:10.37,2013-03-19 04:01:00,
2013-03-18 23:07:00,37.6,20.6,29.98,North,349,4.6,4.6,50,0.00,CLR,,0.00,WeatherDisplay:10.37,2013-03-19 04:07:00,
2013-03-18 23:12:00,37.4,20.4,29.98,North,349,3.5,3.5,50,0.00,CLR,,0.00,WeatherDisplay:10.37,2013-03-19 04:12:00,
2013-03-18 23:17:00,37.2,20.2,29.98,North,349,3.5,3.5,50,0.00,CLR,,0.00,WeatherDisplay:10.37,2013-03-19 04:17:00,
2013-03-18 23:22:00,37.1,20.2,29.99,North,350,4.6,4.6,50,0.00,CLR,,0.00,WeatherDisplay:10.37,2013-03-19 04:22:00,
2013-03-18 23:27:00,36.9,20.4,29.98,North,349,5.0,5.0,51,0.00,CLR,,0.00,WeatherDisplay:10.37,2013-03-19 04:27:00,
2013-03-18 23:32:00,36.7,20.3,29.99,North,349,2.3,2.3,51,0.00,CLR,,0.00,WeatherDisplay:10.37,2013-03-19 04:32:00,
2013-03-18 23:37:00,36.5,20.1,29.99,North,350,4.6,4.6,51,0.00,CLR,,0.00,WeatherDisplay:10.37,2013-03-19 04:37:00,
2013-03-18 23:42:00,36.4,20.0,29.99,North,350,4.6,4.6,51,0.00,CLR,,0.00,WeatherDisplay:10.37,2013-03-19 04:42:00,
2013-03-18 23:47:00,36.2,19.8,29.99,North,350,3.5,3.5,51,0.00,CLR,,0.00,WeatherDisplay:10.37,2013-03-19 04:47:00,
2013-03-18 23:52:00,36.1,19.7,29.98,North,350,2.3,2.3,51,0.00,CLR,,0.00,WeatherDisplay:10.37,2013-03-19 04:52:00,
2013-03-18 23:57:00,36.0,19.6,29.99,North,350,3.5,0.0,51,0.00,CLR,,0.00,WeatherDisplay:10.37,2013-03-19 04:57:00,